Time,TemperatureF,DewpointF,PressureIn,WindDirection,WindDirectionDegrees,WindSpeedMPH,WindSpeedGustMPH,Humidity,HourlyPrecipIn,Conditions,Clouds,dailyrainin,SolarRadiationWatts/m^2,SoftwareType,DateUTC
2013-01-09 00:12:00,61.0,60.0,-100.00,ESE,111,6.0,17.0,95,0.00,,,0.35,0.000000,,2013-01-09 07:12:00,
2013-01-09 00:22:00,61.0,60.0,-100.00,ESE,111,6.0,17.0,95,0.00,,,0.35,0.000000,,2013-01-09 07:22:00,
2013-01-09 00:32:00,61.0,60.0,-100.00,ESE,111,6.0,17.0,95,0.00,,,0.35,0.000000,,2013-01-09 07:32:00,
2013-01-09 00:42:00,61.0,60.0,-100.00,ESE,111,6.0,17.0,95,0.00,,,0.35,0.000000,,2013-01-09 07:42:00,
2013-01-09 00:52:00,61.0,60.0,-100.00,ESE,111,6.0,17.0,95,0.00,,,0.35,0.000000,,2013-01-09 07:52:00,
2013-01-09 01:12:00,61.0,60.0,-100.00,ESE,108,8.0,13.0,96,0.00,,,0.35,0.000000,,2013-01-09 08:12:00,
2013-01-09 01:22:00,61.0,60.0,-100.00,ESE,108,8.0,13.0,96,0.00,,,0.35,0.000000,,2013-01-09 08:22:00,
2013-01-09 01:32:00,61.0,60.0,-100.00,ESE,108,8.0,13.0,96,0.00,,,0.35,0.000000,,2013-01-09 08:32:00,
2013-01-09 01:42:00,61.0,60.0,-100.00,ESE,108,8.0,13.0,96,0.00,,,0.35,0.000000,,2013-01-09 08:42:00,
2013-01-09 01:52:00,61.0,60.0,-100.00,ESE,108,8.0,13.0,96,0.00,,,0.35,0.000000,,2013-01-09 08:52:00,
2013-01-09 02:12:00,61.0,60.0,-100.00,ESE,103,7.0,16.0,96,0.00,,,0.35,0.000000,,2013-01-09 09:12:00,
2013-01-09 02:22:00,61.0,60.0,-100.00,ESE,103,7.0,16.0,96,0.00,,,0.35,0.000000,,2013-01-09 09:22:00,
2013-01-09 02:32:00,61.0,60.0,-100.00,ESE,103,7.0,16.0,96,0.00,,,0.35,0.000000,,2013-01-09 09:32:00,
2013-01-09 02:42:00,61.0,60.0,-100.00,ESE,103,7.0,16.0,96,0.00,,,0.35,0.000000,,2013-01-09 09:42:00,
2013-01-09 02:53:00,61.0,60.0,-100.00,ESE,103,7.0,16.0,96,0.00,,,0.35,0.000000,,2013-01-09 09:53:00,
2013-01-09 03:22:00,61.0,59.0,-100.00,East,94,6.0,12.0,94,0.00,,,0.35,0.000000,,2013-01-09 10:22:00,
2013-01-09 03:32:00,61.0,59.0,-100.00,East,94,6.0,12.0,94,0.00,,,0.35,0.000000,,2013-01-09 10:32:00,
2013-01-09 03:42:00,61.0,59.0,-100.00,East,94,6.0,12.0,94,0.00,,,0.35,0.000000,,2013-01-09 10:42:00,
2013-01-09 03:52:00,61.0,59.0,-100.00,East,94,6.0,12.0,94,0.00,,,0.35,0.000000,,2013-01-09 10:52:00,
2013-01-09 04:22:00,61.0,59.0,-100.00,East,96,7.0,10.0,94,0.02,,,0.37,0.000000,,2013-01-09 11:22:00,
2013-01-09 04:32:00,61.0,59.0,-100.00,East,96,7.0,10.0,94,0.02,,,0.37,0.000000,,2013-01-09 11:32:00,
2013-01-09 04:42:00,61.0,59.0,-100.00,East,96,7.0,10.0,94,0.02,,,0.37,0.000000,,2013-01-09 11:42:00,
2013-01-09 04:52:00,61.0,59.0,-100.00,East,96,7.0,10.0,94,0.02,,,0.37,0.000000,,2013-01-09 11:52:00,
2013-01-09 05:12:00,61.0,59.0,-100.00,ESE,111,4.0,10.0,94,0.02,,,-99.99,0.000000,,2013-01-09 12:12:00,
2013-01-09 05:23:00,61.0,59.0,-100.00,ESE,111,4.0,10.0,94,0.02,,,-99.99,0.000000,,2013-01-09 12:23:00,
2013-01-09 05:33:00,61.0,59.0,-100.00,ESE,111,4.0,10.0,94,0.02,,,-99.99,0.000000,,2013-01-09 12:33:00,
2013-01-09 05:43:00,61.0,59.0,-100.00,ESE,111,4.0,10.0,94,0.02,,,-99.99,0.000000,,2013-01-09 12:43:00,
2013-01-09 05:52:00,61.0,59.0,-100.00,ESE,111,4.0,10.0,94,0.02,,,-99.99,0.000000,,2013-01-09 12:52:00,
2013-01-09 06:12:00,61.0,60.0,-100.00,ESE,107,6.0,10.0,96,0.15,,,0.54,0.000000,,2013-01-09 13:12:00,
2013-01-09 06:23:00,61.0,60.0,-100.00,ESE,107,6.0,10.0,96,0.15,,,0.54,0.000000,,2013-01-09 13:23:00,
2013-01-09 06:33:00,61.0,60.0,-100.00,ESE,107,6.0,10.0,96,0.15,,,0.54,0.000000,,2013-01-09 13:33:00,
2013-01-09 06:43:00,61.0,60.0,-100.00,ESE,107,6.0,10.0,96,0.15,,,0.54,0.000000,,2013-01-09 13:43:00,
2013-01-09 06:52:00,61.0,60.0,-100.00,ESE,107,6.0,10.0,96,0.15,,,0.54,0.000000,,2013-01-09 13:52:00,
2013-01-09 07:12:00,63.0,62.0,-100.00,ESE,118,8.0,11.0,97,0.01,,,0.55,5.000000,,2013-01-09 14:12:00,
2013-01-09 07:22:00,63.0,62.0,-100.00,ESE,118,8.0,11.0,97,0.01,,,0.55,5.000000,,2013-01-09 14:22:00,
2013-01-09 07:33:00,63.0,62.0,-100.00,ESE,118,8.0,11.0,97,0.01,,,0.55,5.000000,,2013-01-09 14:33:00,
2013-01-09 07:43:00,63.0,62.0,-100.00,ESE,118,8.0,11.0,97,0.01,,,0.55,5.000000,,2013-01-09 14:43:00,
2013-01-09 07:53:00,63.0,62.0,-100.00,ESE,118,8.0,11.0,97,0.01,,,0.55,5.000000,,2013-01-09 14:53:00,
2013-01-09 08:12:00,63.0,62.0,-100.00,ESE,114,7.0,15.0,96,0.00,,,0.55,13.000000,,2013-01-09 15:12:00,
2013-01-09 08:23:00,63.0,62.0,-100.00,ESE,114,7.0,15.0,96,0.00,,,0.55,13.000000,,2013-01-09 15:23:00,
2013-01-09 08:33:00,63.0,62.0,-100.00,ESE,114,7.0,15.0,96,0.00,,,0.55,13.000000,,2013-01-09 15:33:00,
2013-01-09 08:42:00,63.0,62.0,-100.00,ESE,114,7.0,15.0,96,0.00,,,0.55,13.000000,,2013-01-09 15:42:00,
2013-01-09 08:53:00,63.0,62.0,-100.00,ESE,114,7.0,15.0,96,0.00,,,0.55,13.000000,,2013-01-09 15:53:00,
2013-01-09 09:23:00,63.0,62.0,-100.00,ESE,107,7.0,11.0,96,0.04,,,0.59,20.000000,,2013-01-09 16:23:00,
2013-01-09 09:33:00,63.0,62.0,-100.00,ESE,107,7.0,11.0,96,0.04,,,0.59,20.000000,,2013-01-09 16:33:00,
2013-01-09 09:43:00,63.0,62.0,-100.00,ESE,107,7.0,11.0,96,0.04,,,0.59,20.000000,,2013-01-09 16:43:00,
2013-01-09 09:52:00,63.0,62.0,-100.00,ESE,107,7.0,11.0,96,0.04,,,0.59,20.000000,,2013-01-09 16:52:00,
2013-01-09 10:12:00,63.0,62.0,-100.00,East,93,4.0,12.0,97,0.14,,,0.73,9.000000,,2013-01-09 17:12:00,
2013-01-09 10:23:00,63.0,62.0,-100.00,East,93,4.0,12.0,97,0.14,,,0.73,9.000000,,2013-01-09 17:23:00,
2013-01-09 10:33:00,63.0,62.0,-100.00,East,93,4.0,12.0,97,0.14,,,0.73,9.000000,,2013-01-09 17:33:00,
2013-01-09 10:43:00,63.0,62.0,-100.00,East,93,4.0,12.0,97,0.14,,,0.73,9.000000,,2013-01-09 17:43:00,
2013-01-09 10:53:00,63.0,62.0,-100.00,East,93,4.0,12.0,97,0.14,,,0.73,9.000000,,2013-01-09 17:53:00,
2013-01-09 11:24:00,64.0,63.0,-100.00,ESE,107,7.0,11.0,97,0.24,,,0.97,5.000000,,2013-01-09 18:24:00,
2013-01-09 11:33:00,64.0,63.0,-100.00,ESE,107,7.0,11.0,97,0.24,,,0.97,5.000000,,2013-01-09 18:33:00,
2013-01-09 11:43:00,64.0,63.0,-100.00,ESE,107,7.0,11.0,97,0.24,,,0.97,5.000000,,2013-01-09 18:43:00,
2013-01-09 11:53:00,64.0,63.0,-100.00,ESE,107,7.0,11.0,97,0.24,,,0.97,5.000000,,2013-01-09 18:53:00,
2013-01-09 12:23:00,64.0,63.0,-100.00,East,100,9.0,14.0,97,0.23,,,1.20,5.000000,,2013-01-09 19:23:00,
2013-01-09 12:33:00,64.0,63.0,-100.00,East,100,9.0,14.0,97,0.23,,,1.20,5.000000,,2013-01-09 19:33:00,
2013-01-09 12:43:00,64.0,63.0,-100.00,East,100,9.0,14.0,97,0.23,,,1.20,5.000000,,2013-01-09 19:43:00,
2013-01-09 12:52:00,64.0,63.0,-100.00,East,100,9.0,14.0,97,0.23,,,1.20,5.000000,,2013-01-09 19:52:00,
2013-01-09 13:23:00,65.0,64.0,-100.00,East,100,13.0,19.0,98,0.17,,,1.37,11.000000,,2013-01-09 20:23:00,
2013-01-09 13:33:00,65.0,64.0,-100.00,East,100,13.0,19.0,98,0.17,,,1.37,11.000000,,2013-01-09 20:33:00,
2013-01-09 13:43:00,65.0,64.0,-100.00,East,100,13.0,19.0,98,0.17,,,1.37,11.000000,,2013-01-09 20:43:00,
2013-01-09 13:52:00,65.0,64.0,-100.00,East,100,13.0,19.0,98,0.17,,,1.37,11.000000,,2013-01-09 20:52:00,
2013-01-09 14:23:00,65.0,64.0,-100.00,ESE,109,10.0,17.0,98,0.72,,,2.09,8.000000,,2013-01-09 21:23:00,
2013-01-09 14:33:00,65.0,64.0,-100.00,ESE,109,10.0,17.0,98,0.72,,,2.09,8.000000,,2013-01-09 21:33:00,
2013-01-09 14:43:00,65.0,64.0,-100.00,ESE,109,10.0,17.0,98,0.72,,,2.09,8.000000,,2013-01-09 21:43:00,
2013-01-09 14:52:00,65.0,64.0,-100.00,ESE,109,10.0,17.0,98,0.72,,,2.09,8.000000,,2013-01-09 21:52:00,
2013-01-09 15:23:00,67.0,66.0,-100.00,ESE,117,12.0,19.0,97,0.08,,,2.17,11.000000,,2013-01-09 22:23:00,
2013-01-09 15:33:00,67.0,66.0,-100.00,ESE,117,12.0,19.0,97,0.08,,,2.17,11.000000,,2013-01-09 22:33:00,
2013-01-09 15:43:00,67.0,66.0,-100.00,ESE,117,12.0,19.0,97,0.08,,,2.17,11.000000,,2013-01-09 22:43:00,
2013-01-09 15:52:00,67.0,66.0,-100.00,ESE,117,12.0,19.0,97,0.08,,,2.17,11.000000,,2013-01-09 22:52:00,
2013-01-09 16:22:00,66.0,65.0,-100.00,South,188,18.0,28.0,97,0.76,,,2.93,1.000000,,2013-01-09 23:22:00,
2013-01-09 16:33:00,66.0,65.0,-100.00,South,188,18.0,28.0,97,0.76,,,2.93,1.000000,,2013-01-09 23:33:00,
2013-01-09 16:43:00,66.0,65.0,-100.00,South,188,18.0,28.0,97,0.76,,,2.93,1.000000,,2013-01-09 23:43:00,
2013-01-09 16:52:00,66.0,65.0,-100.00,South,188,18.0,28.0,97,0.76,,,2.93,1.000000,,2013-01-09 23:52:00,
2013-01-09 17:22:00,65.0,64.0,-100.00,ESE,118,4.0,23.0,95,0.29,,,3.22,0.000000,,2013-01-10 00:22:00,
2013-01-09 17:32:00,65.0,64.0,-100.00,ESE,118,4.0,23.0,95,0.29,,,3.22,0.000000,,2013-01-10 00:32:00,
2013-01-09 17:42:00,65.0,64.0,-100.00,ESE,118,4.0,23.0,95,0.29,,,3.22,0.000000,,2013-01-10 00:42:00,
2013-01-09 17:52:00,65.0,64.0,-100.00,ESE,118,4.0,23.0,95,0.29,,,3.22,0.000000,,2013-01-10 00:52:00,
2013-01-09 18:12:00,66.0,65.0,-100.00,ESE,114,12.0,20.0,96,0.19,,,3.40,0.000000,,2013-01-10 01:12:00,
2013-01-09 18:22:00,66.0,65.0,-100.00,ESE,114,12.0,20.0,96,0.19,,,3.40,0.000000,,2013-01-10 01:22:00,
2013-01-09 18:33:00,66.0,65.0,-100.00,ESE,114,12.0,20.0,96,0.19,,,3.40,0.000000,,2013-01-10 01:33:00,
2013-01-09 18:43:00,66.0,65.0,-100.00,ESE,114,12.0,20.0,96,0.19,,,3.40,0.000000,,2013-01-10 01:43:00,
2013-01-09 18:52:00,66.0,65.0,-100.00,ESE,114,12.0,20.0,96,0.19,,,3.40,0.000000,,2013-01-10 01:52:00,
2013-01-09 19:12:00,66.0,64.0,-100.00,ESE,115,6.0,20.0,93,0.08,,,3.46,0.000000,,2013-01-10 02:12:00,
2013-01-09 19:22:00,66.0,64.0,-100.00,ESE,115,6.0,20.0,93,0.08,,,3.46,0.000000,,2013-01-10 02:22:00,
2013-01-09 19:32:00,66.0,64.0,-100.00,ESE,115,6.0,20.0,93,0.08,,,3.46,0.000000,,2013-01-10 02:32:00,
2013-01-09 19:42:00,66.0,64.0,-100.00,ESE,115,6.0,20.0,93,0.08,,,3.46,0.000000,,2013-01-10 02:42:00,
2013-01-09 19:52:00,66.0,64.0,-100.00,ESE,115,6.0,20.0,93,0.08,,,3.46,0.000000,,2013-01-10 02:52:00,
2013-01-09 20:12:00,66.0,65.0,-100.00,SE,134,5.0,10.0,95,0.01,,,3.30,0.000000,,2013-01-10 03:12:00,
2013-01-09 20:22:00,66.0,65.0,-100.00,SE,134,5.0,10.0,95,0.01,,,3.30,0.000000,,2013-01-10 03:22:00,
2013-01-09 20:33:00,66.0,65.0,-100.00,SE,134,5.0,10.0,95,0.01,,,3.30,0.000000,,2013-01-10 03:33:00,
2013-01-09 20:42:00,66.0,65.0,-100.00,SE,134,5.0,10.0,95,0.01,,,3.30,0.000000,,2013-01-10 03:42:00,
2013-01-09 20:52:00,66.0,65.0,-100.00,SE,134,5.0,10.0,95,0.01,,,3.30,0.000000,,2013-01-10 03:52:00,
2013-01-09 21:12:00,65.0,64.0,-100.00,ESE,112,4.0,11.0,96,0.28,,,3.45,0.000000,,2013-01-10 04:12:00,
2013-01-09 21:22:00,65.0,64.0,-100.00,ESE,112,4.0,11.0,96,0.28,,,3.45,0.000000,,2013-01-10 04:22:00,
2013-01-09 21:32:00,65.0,64.0,-100.00,ESE,112,4.0,11.0,96,0.28,,,3.45,0.000000,,2013-01-10 04:32:00,
2013-01-09 21:42:00,65.0,64.0,-100.00,ESE,112,4.0,11.0,96,0.28,,,3.45,0.000000,,2013-01-10 04:42:00,
2013-01-09 21:52:00,65.0,64.0,-100.00,ESE,112,4.0,11.0,96,0.28,,,3.45,0.000000,,2013-01-10 04:52:00,
2013-01-09 22:12:00,65.0,64.0,-100.00,NNE,16,4.0,6.0,97,0.27,,,3.70,0.000000,,2013-01-10 05:12:00,
2013-01-09 22:22:00,65.0,64.0,-100.00,NNE,16,4.0,6.0,97,0.27,,,3.70,0.000000,,2013-01-10 05:22:00,
2013-01-09 22:33:00,65.0,64.0,-100.00,NNE,16,4.0,6.0,97,0.27,,,3.70,0.000000,,2013-01-10 05:33:00,
2013-01-09 22:42:00,65.0,64.0,-100.00,NNE,16,4.0,6.0,97,0.27,,,3.70,0.000000,,2013-01-10 05:42:00,
2013-01-09 22:52:00,65.0,64.0,-100.00,NNE,16,4.0,6.0,97,0.27,,,3.70,0.000000,,2013-01-10 05:52:00,
2013-01-09 23:12:00,65.0,64.0,-100.00,East,88,3.0,8.0,97,0.05,,,3.75,0.000000,,2013-01-10 06:12:00,
2013-01-09 23:22:00,65.0,64.0,-100.00,East,88,3.0,8.0,97,0.05,,,3.75,0.000000,,2013-01-10 06:22:00,
2013-01-09 23:32:00,65.0,64.0,-100.00,East,88,3.0,8.0,97,0.05,,,3.75,0.000000,,2013-01-10 06:32:00,
2013-01-09 23:42:00,65.0,64.0,-100.00,East,88,3.0,8.0,97,0.05,,,3.75,0.000000,,2013-01-10 06:42:00,
2013-01-09 23:52:00,65.0,64.0,-100.00,East,88,3.0,8.0,97,0.05,,,3.75,0.000000,,2013-01-10 06:52:00,